Regional Weather Roundup
Issued by NWS Portland, ME

Home | Current Version | Previous Version | Text Only | Print | Product List | Glossary On
Versions: 1 2 3 4 5 6 7 8 9 10 11 12 13 14 15 16 17 18 19 20 21 22 23 24 25 26 27 28 29 30 31 32 33 34 35 36 37 38 39 40 41 42 43 44 45 46 47 48 49 50
000
ASUS41 KGYX 200410
RWRGYX
WEATHER ROUNDUP FOR MAINE AND NEW HAMPSHIRE
NATIONAL WEATHER SERVICE GRAY ME
1200 AM EDT WED SEP 20 2017

MEZ002-005-006-010-012-015-018-020-021-024-026-027-029-200500-
MAINE

CITY           SKY/WX    TMP DP  RH WIND       PRES   REMARKS
PORTLAND       CLOUDY    65  64  97 NE8       30.05S FOG
SANFORD        LGT RAIN  65  65 100 NE9       30.04F FOG
BAR HARBOR     CLOUDY    64  64 100 E3        30.08F FOG
WISCASSET      CLOUDY    67  65  93 VRB5      30.06F
ROCKLAND       CLOUDY    65  65 100 NE7       30.06F FOG
FRYEBURG       CLOUDY    66  66 100 N5        30.07F
LEWISTONAUBURN CLOUDY    66  65  96 NE8       30.07F
AUGUSTA        CLOUDY    65  65 100 NE6       30.08F FOG
WATERVILLE     CLOUDY    66  65  96 NE6       30.06F FOG
BANGOR         CLOUDY    67  65  93 E3        30.09F FOG
GREENVILLE       N/A     63  63 100 E3        30.11F
MILLINOCKET    CLOUDY    65  64  97 CALM      30.11F
HOULTON        CLOUDY    60  60 100 CALM      30.11S
PRESQUE ISLE   FOG       55  55 100 CALM      30.12S VSB 1/4
FRENCHVILLE    PTCLDY    59  57  93 S7        30.11S
CARIBOU        FOG       60  58  92 CALM      30.11S VSB 3/4
$$

NHZ002-005-008-009-011-012-014-200500-
NEW HAMPSHIRE

CITY           SKY/WX    TMP DP  RH WIND       PRES   REMARKS
PORTSMOUTH     CLOUDY    65  65 100 NE14      30.00F FOG
ROCHESTER      CLOUDY    66  64  93 N7        30.02F FOG
NASHUA         CLOUDY    67  66  97 VRB7      30.00F
MANCHESTER     CLOUDY    67  65  93 N12       29.99F
CONCORD        CLOUDY    68  64  87 NE6       30.03F
LACONIA        CLOUDY    67  64  90 NE6       30.06F
PLYMOUTH       CLOUDY    66  63  88 CALM      30.05F
BERLIN         CLOUDY    66  60  81 NW3       30.10F
WHITEFIELD     CLOUDY    62  59  90 CALM      30.08F
JAFFREY        CLOUDY    65  65 100 VRB3      30.03F FOG
KEENE          CLOUDY    68  64  87 N9        30.02S
LEBANON        CLOUDY    68  64  87 CALM      30.04F
MT WASHINGTON  FOG       50  50 100 SE20        N/A  VSB 1/16
$$

VTZ005-007-008-200500-
VERMONT

CITY           SKY/WX    TMP DP  RH WIND       PRES   REMARKS
ST JOHNSBURY     N/A     60  60 100 MISG      30.06F
MONTPELIER     FOG       58  58 100 CALM      30.12F VSB 3/4
BURLINGTON     CLEAR     62  60  93 CALM      30.04F
$$

MAZ007-012-024-CTZ003-RIZ002-NYZ038-NYZ072-200500-
SOUTHERN NEW ENGLAND AND NY

CITY           SKY/WX    TMP DP  RH WIND       PRES   REMARKS
BOSTON         CLOUDY    63  63 100 N16       29.96F FOG
WORCESTER      LGT RAIN  63  62  97 NE14G25   29.97F VSB 1/2
NANTUCKET      CLOUDY    66  66 100 NE21G28   29.82F FOG
PROVIDENCE     LGT RAIN  66  65  96 N17       29.91F FOG
HARTFORD       CLOUDY    70  65  84 N14       29.94S
ALBANY         MOCLDY    65  61  87 N5        30.00F
NEW YORK CITY  CLOUDY    72  66  81 N12       29.85F
$$

ANZ081-ANZ082-ANZ150-NHZ014-MEZ023>029-200500-
COASTAL MARINE OBSERVATIONS

STATION/POSITION TIME  TEMP    WIND        PRES    WAVE
                       AIR SEA DIR/SP/G            HT/PER
                 (UTC) (F)     (DEG/KT/KT) (MB)    (FT/S)
MOUNT DESERT ROC 0400   57      20/ 15/ 15 1017.6F
MATINICUS ROCK   0400   57      50/ 17/ 18 1016.8F
ISLE OF SHOALS   0400   61      30/ 21/ 25 1015.3F
JEFFREYS LEDGE   0306      64                N/A     7/11
GEORGES BANK BUO 0250   76 72              1011.5   15/13
$$

.............KEY..............
   WCI - WIND CHILL
   TC  - TEMPERATURE IN CELSIUS
   VSB - VISIBILITY IN MILES
   HX  - HEAT INDEX
   FAIR- INDICATES FEW OR NO CLOUDS BELOW 12,000 FT, WITH NO
         SIGNIFICANT WEATHER AND/OR OBSTRUCTIONS TO VISIBILITY.






USA.gov is the U.S. government's official web portal to all federal, state and local government web resources and services.